[[{"header":{"parameterUnit":"m.s-1","parameterCategory":1,"la1":30.2991,"la2":30.254,"lo1":-89.0895,"lo2":-89.0444,"dy":0.0017,"dx":0.0017,"nx":28,"ny":28,"refTime":"2023-08-31T09:00:00:Z","depth":0,"parameterNumber":2,"parameterNumberName":"U-component_of_WINDS"},"data":[0,0,0,0,0,0,0,0,0,0,0,0,0,0,0,0,0,0,0,0,0,0,0,0,0,0,0,0,0,0,0,0,0,0,0,0,0,0,0,0,0,0,0,0,0,0,0,0,0,0,0,0,0,0,0,0,0,0,-1.7705,-1.7706,0,-1.7742,-1.7742,-1.7742,-1.7645,-1.7642,-1.7639,-1.7636,-1.7676,-1.768,-1.7684,0,0,0,0,0,0,0,0,0,0,0,0,0,-1.7553,-1.7556,-1.7705,-1.7706,-1.7706,-1.7742,-1.7742,-1.7743,-1.7646,-1.7642,-1.7638,-1.7635,-1.7675,-1.7679,-1.7684,0,0,0,0,0,0,0,0,0,0,0,0,0,-1.7607,-1.7557,-1.7705,-1.7662,-1.7658,-1.7741,-1.7742,-1.7743,-1.7647,-1.7642,-1.7637,-1.7633,-1.7673,-1.7679,-1.7685,-1.7812,0,0,-1.7702,-1.7705,0,0,0,0,0,0,0,0,-1.7604,-1.7613,-1.7668,-1.7665,-1.7661,-1.7684,-1.7703,-1.7766,-1.7648,-1.7651,-1.7636,-1.7631,-1.7683,-1.7687,-1.7704,-1.7814,-1.7815,-1.7703,-1.7707,-1.7709,-1.7711,0,0,0,0,0,0,0,-1.7601,-1.7611,-1.772,-1.7669,-1.7665,-1.7641,-1.7644,-1.7714,-1.7692,-1.7651,-1.7644,-1.7649,-1.768,-1.7699,-1.7704,-1.7816,-1.7703,-1.7708,-1.7712,-1.7714,-1.803,-1.8035,0,0,0,0,0,0,-1.7602,-1.7608,-1.7718,-1.7721,-1.7621,-1.7648,-1.7651,-1.7681,-1.7691,-1.7688,-1.7653,-1.7644,-1.7691,-1.7698,-1.7706,-1.7855,-1.7709,-1.7714,-1.7718,-1.8026,-1.8031,-1.8037,0,0,0,0,0,0,-1.7599,-1.7613,-1.7717,-1.7663,-1.7674,-1.7655,-1.7691,-1.7685,-1.7703,-1.7693,-1.7688,-1.7676,-1.7688,-1.7697,-1.7786,-1.7855,-1.7717,-1.7722,-1.802,-1.8027,-1.8034,-1.8155,0,0,0,0,0,0,-1.7595,-1.7612,-1.7661,-1.7664,-1.7677,-1.7797,-1.7695,-1.7689,-1.7713,-1.7703,-1.7714,-1.7711,-1.7685,-1.7778,-1.7792,-1.786,-1.7727,-1.8013,-1.8023,-1.8032,-1.8145,-1.8165,-1.8183,0,0,0,0,0,-1.759,-1.7694,-1.7663,-1.7677,-1.7737,-1.7801,-1.7808,-1.7776,-1.7719,-1.7768,-1.776,-1.7711,-1.7845,-1.7787,-1.7802,-1.7874,-1.8009,-1.802,-1.8031,-1.8136,-1.8161,-1.8183,0,0,0,0,0,0,-1.77,-1.7694,-1.766,-1.7768,-1.7786,-1.7784,-1.7845,-1.7804,-1.7838,-1.7827,-1.7785,-1.7789,-1.7885,-1.7888,-1.7824,-1.7997,-1.7917,-1.7932,-1.7992,-1.8016,-1.8035,-1.8033,-1.7732,0,0,0,0,0,-1.7736,-1.7788,-1.778,-1.7876,-1.7887,-1.7864,-1.7891,-1.7864,-1.7881,-1.7888,-1.7887,-1.7907,-1.7952,-1.7984,-1.8026,-1.8144,-1.8145,-1.82,-1.822,-1.8235,-1.8249,-1.8311,-1.8336,-1.8073,-1.8073,-1.8073,0,0,-1.7813,-1.7816,-1.7852,-1.7898,-1.7909,-1.7964,-1.7871,-1.7934,-1.7974,-1.7898,-1.7981,-1.7981,-1.8,-1.8103,-1.8149,-1.8109,-1.8322,-1.825,-1.8262,-1.8267,-1.8325,-1.835,-1.8372,-1.8081,-1.8079,-1.8078,0,0,-1.7981,-1.7988,-1.8068,-1.808,-1.8097,-1.8081,-1.8101,-1.8105,-1.8102,-1.8185,-1.8128,-1.8176,-1.8256,-1.8271,-1.829,-1.8461,-1.8417,-1.8476,-1.8578,-1.8639,-1.8659,-1.8678,-1.8739,-1.8762,-1.8489,-1.849,-1.849,0,-1.8074,-1.8155,-1.8115,-1.8182,-1.8204,-1.8135,-1.8217,-1.823,-1.826,-1.8277,-1.8231,-1.833,-1.8338,-1.8444,-1.8485,-1.8502,-1.8523,-1.8476,-1.8659,-1.8677,-1.8694,-1.8752,-1.8775,-1.8497,-1.8496,-1.8495,-1.8494,0,-1.8269,-1.8325,-1.8388,-1.8418,-1.8447,-1.8521,-1.8493,-1.8527,-1.8496,-1.8485,-1.857,-1.8576,-1.8618,-1.8641,-1.8612,-1.8743,-1.8717,-1.8666,-1.8586,-1.8727,-1.8781,-1.8803,-1.8507,-1.8504,-1.8502,-1.85,0,0,-1.8509,-1.8514,-1.8538,-1.8551,-1.8563,-1.8606,-1.8676,-1.8716,-1.8746,-1.8768,-1.8826,-1.8895,-1.8847,-1.8868,-1.884,-1.8894,-1.903,-1.8836,-1.8836,-1.8872,-1.9174,-1.9213,-1.924,-1.8999,-1.9003,-1.9006,-1.9172,0,-1.8675,-1.8795,-1.8761,-1.8881,-1.8933,-1.8867,-1.8928,-1.8942,-1.8933,-1.8976,-1.8966,-1.9016,-1.8948,-1.8961,-1.901,-1.9003,-1.909,-1.899,-1.9054,-1.9056,-1.9053,-1.9268,-1.931,-1.9467,-1.9193,-1.9197,-1.9199,0,-1.8886,-1.8915,-1.9041,-1.9043,-1.9063,-1.9119,-1.9152,-1.9193,-1.9208,-1.9197,-1.922,-1.9181,-1.9249,-1.9167,-1.9261,-1.9194,-1.9218,-1.9218,-1.9223,-1.9229,-1.9138,-1.9281,-1.9516,-1.954,-1.9232,-1.923,-1.9227,0,-1.905,-1.9121,-1.9204,-1.9217,-1.9222,-1.9262,-1.9266,-1.9276,-1.9302,-1.933,-1.9346,-1.9383,-1.9404,-1.9433,-1.9405,-1.9347,-1.9504,-1.9419,-1.9498,-1.9499,-1.9535,-1.9534,-1.9779,-1.9549,-1.9548,-1.9548,-1.9548,0,-1.924,-1.9319,-1.9278,-1.933,-1.9416,-1.9376,-1.9463,-1.9459,-1.9468,-1.9518,-1.9463,-1.9512,-1.9471,-1.9516,-1.9494,-1.9575,-1.9585,-1.9579,-1.9572,-1.9585,-1.9586,-1.9601,-1.959,-1.9554,-1.9553,-1.9552,-1.9551,0,-1.9439,-1.9414,-1.9501,-1.9498,-1.9499,-1.9563,-1.956,-1.9608,-1.9594,-1.9658,-1.9671,-1.9649,-1.9699,-1.9673,-1.9724,-1.9709,-1.9815,-1.9793,-1.981,-1.9805,-1.9886,-1.9879,-2.015,-2.0184,-1.9931,-1.9934,-1.9936,0,-1.9562,-1.9622,-1.9624,-1.9653,-1.9661,-1.9709,-1.9734,-1.9695,-1.9724,-1.9744,-1.979,-1.9834,-1.9868,-1.995,-1.9939,-1.9978,-1.9957,-2.0049,-1.9963,-1.9973,-1.996,-1.9957,-1.9963,-2.0068,-2.0071,-2.0073,-2.0075,0,-1.9785,-1.9769,-1.9808,-1.9842,-1.9873,-1.9899,-1.9919,-1.9946,-1.9908,-1.9943,-1.9992,-2.0018,-2.007,-2.0115,-2.0148,-2.0152,-2.0108,-2.0102,-2.0122,-2.0136,-2.0144,-2.0141,-1.9859,-2.0096,-2.0094,-2.0093,-2.0091,-2.0091,-1.9951,-2.0,-2.0009,-2.0053,-2.0064,-2.0085,-2.0129,-2.012,-2.016,-2.0198,-2.0173,-2.0231,-2.0243,-2.0282,-2.0292,-2.0337,-2.03,-2.033,-2.0337,-2.0346,-2.0357,-2.0135,-2.0343,-2.0342,-2.0341,-2.0341,-2.034,0,-2.0171,-2.0173,-2.0214,-2.0244,-2.0279,-2.0232,-2.0252,-2.0284,-2.0336,-2.035,-2.0383,-2.044,-2.0482,-2.0474,-2.0513,-2.055,-2.0531,-2.0562,-2.056,-2.0561,-2.0387,-2.0366,-2.0577,-2.0577,-2.0577,-2.0577,-2.0577,-2.0577,-2.029,-2.0371,-2.0356,-2.0442,-2.0443,-2.0499,-2.0514,-2.0532,-2.0543,-2.0608,-2.0643,-2.0637,-2.0642,-2.068,-2.0717,-2.0713,-2.0731,-2.0769,-2.0759,-2.0597,-2.0574,-2.0551,-2.0531,-2.0773,-2.0774,-2.0929,-2.093,-2.0931]},{"header":{"parameterUnit":"m.s-1","parameterCategory":1,"la1":30.2991,"la2":30.254,"lo1":-89.0895,"lo2":-89.0444,"dy":0.0017,"dx":0.0017,"nx":28,"ny":28,"refTime":"2023-08-31T09:00:00:Z","depth":0,"parameterNumber":3,"parameterNumberName":"V-component_of_WINDS"},"data":[0,0,0,0,0,0,0,0,0,0,0,0,0,0,0,0,0,0,0,0,0,0,0,0,0,0,0,0,0,0,0,0,0,0,0,0,0,0,0,0,0,0,0,0,0,0,0,0,0,0,0,0,0,0,0,0,0,0,-2.903,-2.9031,0,-2.9045,-2.9046,-2.9046,-2.8999,-2.8997,-2.8996,-2.8995,-2.901,-2.9011,-2.9013,0,0,0,0,0,0,0,0,0,0,0,0,0,-2.896,-2.8961,-2.903,-2.9031,-2.9031,-2.9045,-2.9046,-2.9046,-2.8999,-2.8997,-2.8996,-2.8994,-2.9009,-2.9011,-2.9013,0,0,0,0,0,0,0,0,0,0,0,0,0,-2.8984,-2.8962,-2.903,-2.9009,-2.9007,-2.9045,-2.9046,-2.9046,-2.8999,-2.8997,-2.8995,-2.8993,-2.9009,-2.9011,-2.9014,-2.9073,0,0,-2.9022,-2.9023,0,0,0,0,0,0,0,0,-2.8983,-2.8987,-2.9012,-2.9011,-2.9009,-2.9018,-2.9026,-2.9055,-2.9,-2.9002,-2.8995,-2.8992,-2.9014,-2.9016,-2.9024,-2.9073,-2.9074,-2.9022,-2.9023,-2.9025,-2.9025,0,0,0,0,0,0,0,-2.8981,-2.8986,-2.9036,-2.9013,-2.9011,-2.8998,-2.9,-2.9031,-2.902,-2.9002,-2.8999,-2.9001,-2.9013,-2.9021,-2.9024,-2.9074,-2.9022,-2.9024,-2.9026,-2.9027,-2.917,-2.9172,0,0,0,0,0,0,-2.8982,-2.8985,-2.9036,-2.9037,-2.899,-2.9001,-2.9003,-2.9017,-2.902,-2.9018,-2.9003,-2.8999,-2.9018,-2.9021,-2.9024,-2.9091,-2.9025,-2.9027,-2.9028,-2.9168,-2.9171,-2.9173,0,0,0,0,0,0,-2.8981,-2.8987,-2.9035,-2.901,-2.9015,-2.9005,-2.9022,-2.9019,-2.9027,-2.902,-2.9018,-2.9014,-2.9016,-2.902,-2.906,-2.9091,-2.9028,-2.903,-2.9165,-2.9169,-2.9172,-2.9228,0,0,0,0,0,0,-2.8979,-2.8987,-2.901,-2.9011,-2.9017,-2.9072,-2.9024,-2.9021,-2.9032,-2.9026,-2.903,-2.9028,-2.9015,-2.9057,-2.9063,-2.9094,-2.9033,-2.9163,-2.9167,-2.9171,-2.9223,-2.9233,-2.9241,0,0,0,0,0,-2.8977,-2.9026,-2.9011,-2.9018,-2.9045,-2.9074,-2.9077,-2.9061,-2.9034,-2.9057,-2.9052,-2.9028,-2.9087,-2.9061,-2.9068,-2.91,-2.916,-2.9166,-2.9171,-2.9219,-2.9231,-2.9241,0,0,0,0,0,0,-2.9029,-2.9025,-2.901,-2.906,-2.9068,-2.9066,-2.9094,-2.9074,-2.9089,-2.9084,-2.9063,-2.9064,-2.9107,-2.9108,-2.9079,-2.9156,-2.9119,-2.9126,-2.9154,-2.9165,-2.9174,-2.9172,-2.9035,0,0,0,0,0,-2.9047,-2.9071,-2.9066,-2.9111,-2.9115,-2.9104,-2.9116,-2.9103,-2.911,-2.9112,-2.9111,-2.9118,-2.9138,-2.9152,-2.917,-2.9223,-2.9222,-2.9249,-2.9257,-2.9265,-2.927,-2.9297,-2.9308,-2.919,-2.919,-2.919,0,0,-2.9083,-2.9084,-2.9101,-2.9122,-2.9126,-2.915,-2.9107,-2.9135,-2.9153,-2.9117,-2.9154,-2.9153,-2.916,-2.9206,-2.9226,-2.9208,-2.9303,-2.9271,-2.9277,-2.9279,-2.9303,-2.9314,-2.9324,-2.9193,-2.9193,-2.9192,0,0,-2.9162,-2.9165,-2.9202,-2.9207,-2.9213,-2.9205,-2.9214,-2.9215,-2.9212,-2.9249,-2.9222,-2.9243,-2.9278,-2.9283,-2.9291,-2.9369,-2.9347,-2.9376,-2.9422,-2.9447,-2.9457,-2.9465,-2.9491,-2.9501,-2.9381,-2.9382,-2.9382,0,-2.9206,-2.9242,-2.9224,-2.9253,-2.9262,-2.923,-2.9266,-2.9272,-2.9284,-2.9291,-2.927,-2.9313,-2.9315,-2.9361,-2.938,-2.9388,-2.9396,-2.9375,-2.9457,-2.9465,-2.9472,-2.9497,-2.9507,-2.9385,-2.9385,-2.9384,-2.9384,0,-2.9295,-2.9321,-2.9349,-2.9361,-2.9374,-2.9407,-2.9393,-2.9408,-2.9393,-2.9386,-2.9423,-2.9425,-2.9442,-2.9452,-2.9439,-2.9496,-2.9484,-2.9461,-2.9423,-2.9487,-2.951,-2.9519,-2.939,-2.9388,-2.9387,-2.9387,0,0,-2.9408,-2.9407,-2.9418,-2.9422,-2.9426,-2.9445,-2.9476,-2.9492,-2.9505,-2.9514,-2.9538,-2.9568,-2.9546,-2.9554,-2.9541,-2.9564,-2.9623,-2.9537,-2.9537,-2.9552,-2.9685,-2.9701,-2.9713,-2.9609,-2.9611,-2.9612,-2.9684,0,-2.9483,-2.9536,-2.9519,-2.9572,-2.9594,-2.9563,-2.9589,-2.9594,-2.9589,-2.9607,-2.9601,-2.9621,-2.9591,-2.9596,-2.9617,-2.9612,-2.965,-2.9607,-2.9631,-2.9632,-2.9629,-2.9725,-2.9743,-2.981,-2.9693,-2.9694,-2.9695,0,-2.9579,-2.9591,-2.9646,-2.9644,-2.9652,-2.9677,-2.9689,-2.9707,-2.9711,-2.9705,-2.9714,-2.9695,-2.9724,-2.9687,-2.9726,-2.9697,-2.9706,-2.9705,-2.9707,-2.9708,-2.9667,-2.9727,-2.9831,-2.9841,-2.9709,-2.9708,-2.9707,0,-2.9653,-2.9683,-2.9719,-2.9724,-2.9723,-2.974,-2.9741,-2.9743,-2.9753,-2.9764,-2.977,-2.9785,-2.9792,-2.9804,-2.9789,-2.9764,-2.983,-2.9792,-2.9825,-2.9825,-2.9839,-2.9838,-2.9945,-2.9848,-2.9847,-2.9847,-2.9847,0,-2.9739,-2.9773,-2.9752,-2.9774,-2.9811,-2.9791,-2.9828,-2.9825,-2.9827,-2.9848,-2.9822,-2.9842,-2.9822,-2.9839,-2.9828,-2.9861,-2.9865,-2.9861,-2.9857,-2.9862,-2.9862,-2.9867,-2.9861,-2.985,-2.9849,-2.9849,-2.9848,0,-2.9828,-2.9816,-2.9852,-2.9848,-2.9848,-2.9875,-2.9871,-2.9891,-2.9883,-2.9909,-2.9914,-2.9902,-2.9921,-2.9907,-2.9927,-2.9919,-2.9962,-2.9953,-2.9961,-2.9957,-2.999,-2.9987,-3.0103,-3.0116,-3.0011,-3.0012,-3.0013,0,-2.9883,-2.9908,-2.9906,-2.9918,-2.9919,-2.9939,-2.9948,-2.9929,-2.9941,-2.9946,-2.9965,-2.9982,-2.9994,-3.0026,-3.0019,-3.0033,-3.0023,-3.0063,-3.0025,-3.0029,-3.0022,-3.002,-3.0021,-3.007,-3.0071,-3.0072,-3.0073,0,-2.9981,-2.9973,-2.9988,-3.0,-3.0012,-3.0021,-3.0028,-3.0039,-3.0019,-3.0033,-3.0052,-3.0061,-3.008,-3.0097,-3.0108,-3.0108,-3.0087,-3.0085,-3.0093,-3.0098,-3.01,-3.0098,-2.998,-3.0082,-3.0081,-3.0081,-3.008,-3.008,-3.0054,-3.0074,-3.0075,-3.0091,-3.0094,-3.0101,-3.0118,-3.0112,-3.0127,-3.0141,-3.0129,-3.0151,-3.0153,-3.0166,-3.0169,-3.0185,-3.0169,-3.0181,-3.0184,-3.0187,-3.0191,-3.0099,-3.0188,-3.0187,-3.0187,-3.0187,-3.0187,0,-3.0149,-3.0147,-3.0163,-3.0172,-3.0185,-3.0164,-3.017,-3.0182,-3.0202,-3.0205,-3.0217,-3.0238,-3.0253,-3.0247,-3.0261,-3.0275,-3.0266,-3.0279,-3.0277,-3.0277,-3.0205,-3.0196,-3.0286,-3.0286,-3.0286,-3.0286,-3.0286,-3.0286,-3.02,-3.0232,-3.0224,-3.0256,-3.0255,-3.0276,-3.0281,-3.0286,-3.0288,-3.0312,-3.0325,-3.032,-3.032,-3.0332,-3.0345,-3.0343,-3.0348,-3.0365,-3.0359,-3.0292,-3.0282,-3.0273,-3.0264,-3.0367,-3.0367,-3.0429,-3.043,-3.043]}]]